M I D A S
Marine Information and Data Acquisition System
Tripno 841 of the Zeeleeuw from 2005-01-25 07:31:36 to 2005-01-25 16:34:44
Back to CruiseResearch ActivitiesStationsMapUnderway DataData graphs

EquipmentUnitsComments
TimeDGPSUTC
LatitudeDGPSDM.mWGS84
LongitudeDGPSDM.mWGS84
SpeedMeteo Stationm/sRelative wind speed
DirectionMeteo StationdegRelative wind direction
TemperatureMeteo Stationdeg CelciusAir temperature
PressureMeteo StationPaAtmospheric pressure
HumidityMeteo Station%Relative humidity
Missing or incorrect values are displayed as -999
Metereological data collected by the RV Zeeleeuw from 2005-01-25 07:32:50 to 2005-01-25 16:45:10
Time Latitude Longitude Speed Direction Temperature Pressure Humidity
2005-01-25 07:33 51°13.611 2°56.043 4.7 279 0.9 102570 100
2005-01-25 07:34 51°13.641 2°55.957 3.5 261 0.9 102570 100
2005-01-25 07:35 51°13.683 2°55.862 2.5 252 0.9 102570 100
2005-01-25 07:36 51°13.712 2°55.752 2.7 245 1 102570 100
2005-01-25 07:37 51°13.723 2°55.734 3.6 346 1 102600 99
2005-01-25 07:38 51°13.715 2°55.723 2.9 12 1 102560 99
2005-01-25 07:39 51°13.78 2°55.674 3.8 30 1 102570 98
2005-01-25 07:40 51°13.898 2°55.576 6.5 39 1.1 102570 96
2005-01-25 07:41 51°14.03 2°55.479 5.3 65 1.3 102560 93
2005-01-25 07:42 51°14.165 2°55.381 10.1 58 1.6 102570 90
2005-01-25 07:43 51°14.274 2°55.224 5.6 89 1.9 102550 87
2005-01-25 07:44 51°14.386 2°55.019 9.5 71 2.3 102550 85
2005-01-25 07:45 51°14.52 2°54.8 10.4 46 2.6 102520 82
2005-01-25 07:46 51°14.69 2°54.676 12 61 2.7 102520 79
2005-01-25 07:47 51°14.865 2°54.575 16.8 47 2.7 102550 75
2005-01-25 07:48 51°15.04 2°54.483 13 64 2.8 102510 68
2005-01-25 07:49 51°15.215 2°54.396 13.1 49 3 102510 69
2005-01-25 07:50 51°15.389 2°54.307 15.1 53 3 102500 65
2005-01-25 07:51 51°15.563 2°54.222 13.7 52 3 102510 68
2005-01-25 07:52 51°15.739 2°54.14 14.8 52 3.1 102510 69
2005-01-25 07:53 51°15.913 2°54.101 16.6 37 3.1 102510 63
2005-01-25 07:54 51°16.078 2°54.165 16.3 33 3.1 102530 62
2005-01-25 07:55 51°16.193 2°54.233 13.4 15 3.1 102540 60
2005-01-25 07:56 51°16.229 2°54.29 12.3 20 3.1 102570 62
2005-01-25 07:57 51°16.226 2°54.275 12 45 3 102570 62
2005-01-25 07:58 51°16.217 2°54.237 11.3 58 3 102560 62
2005-01-25 07:59 51°16.203 2°54.189 10.1 83 3 102560 61
2005-01-25 08:00 51°16.182 2°54.141 11.6 101 3.1 102570 63
2005-01-25 08:01 51°16.157 2°54.095 9.2 118 3.1 102580 60
2005-01-25 08:02 51°16.131 2°54.051 12.8 122 3.1 102570 63
2005-01-25 08:03 51°16.103 2°54.011 12.5 117 3.1 102570 63
2005-01-25 08:04 51°16.076 2°53.97 10.8 132 3.2 102580 63
2005-01-25 08:05 51°16.048 2°53.929 12 127 3.2 102580 59
2005-01-25 08:06 51°16.02 2°53.887 11.3 133 3.1 102570 57
2005-01-25 08:07 51°16.007 2°53.828 11 84 3.1 102580 57
2005-01-25 08:08 51°16.053 2°53.804 15.6 34 3.1 102550 58
2005-01-25 08:09 51°16.113 2°53.944 15.5 20 3.1 102550 58
2005-01-25 08:10 51°16.188 2°54.115 15.8 12 3.1 102560 57
2005-01-25 08:11 51°16.239 2°54.241 13.4 21 3.1 102580 59
2005-01-25 08:12 51°16.243 2°54.282 9.4 356 3.1 102600 60
2005-01-25 08:13 51°16.223 2°54.278 10.9 348 3.1 102600 60
2005-01-25 08:14 51°16.197 2°54.256 11 335 3.1 102620 60
2005-01-25 08:15 51°16.172 2°54.239 9.3 2 3.1 102610 59
2005-01-25 08:16 51°16.154 2°54.218 10.3 27 3.1 102600 61
2005-01-25 08:17 51°16.137 2°54.182 9.9 50 3.2 102580 61
2005-01-25 08:18 51°16.112 2°54.131 8.2 78 3.1 102580 60
2005-01-25 08:19 51°16.106 2°54.052 10.9 44 3.1 102570 60
2005-01-25 08:20 51°16.078 2°53.866 6.3 152 3.2 102580 62
2005-01-25 08:21 51°16.04 2°53.527 6.2 137 3.2 102570 60
2005-01-25 08:22 51°16.074 2°53.157 10.6 95 3.2 102550 60
2005-01-25 08:23 51°16.239 2°52.937 12.7 69 3.2 102520 61
2005-01-25 08:24 51°16.437 2°52.822 13.4 60 3.2 102500 61
2005-01-25 08:25 51°16.64 2°52.728 15 53 3.2 102500 62
2005-01-25 08:26 51°16.836 2°52.633 16 59 3.3 102510 61
2005-01-25 08:27 51°17.034 2°52.541 16.2 60 3.2 102500 59
2005-01-25 08:28 51°17.232 2°52.447 13.8 61 3.2 102500 59
2005-01-25 08:29 51°17.421 2°52.303 14.1 71 3.3 102510 61
2005-01-25 08:30 51°17.596 2°52.108 14 64 3.3 102510 61
2005-01-25 08:31 51°17.768 2°51.903 12.1 73 3.3 102510 60
2005-01-25 08:32 51°17.941 2°51.705 10.5 78 3.3 102520 63
2005-01-25 08:33 51°18.117 2°51.504 13.2 69 3.3 102520 61
2005-01-25 08:34 51°18.294 2°51.297 11.2 71 3.2 102530 59
2005-01-25 08:35 51°18.46 2°51.069 11.1 66 3.3 102530 63
2005-01-25 08:36 51°18.545 2°51.005 11 44 3.2 102580 62
2005-01-25 08:37 51°18.552 2°50.984 9.2 27 3.2 102610 59
2005-01-25 08:38 51°18.542 2°50.952 7.9 35 3.1 102610 60
2005-01-25 08:39 51°18.52 2°50.907 9.4 45 3.1 102610 62
2005-01-25 08:40 51°18.492 2°50.852 9 70 3.3 102600 65
2005-01-25 08:41 51°18.476 2°50.799 8 74 3.2 102600 61
2005-01-25 08:42 51°18.522 2°50.824 14.7 12 3.2 102590 61
2005-01-25 08:43 51°18.618 2°51.025 15.6 16 3.1 102550 60
2005-01-25 08:44 51°18.69 2°51.305 16.5 10 3.2 102570 61
2005-01-25 08:45 51°18.755 2°51.593 17.4 11 3.2 102560 60
2005-01-25 08:46 51°18.823 2°51.882 17.7 2 3.2 102560 62
2005-01-25 08:47 51°18.893 2°52.169 17.5 13 3.3 102550 62
2005-01-25 08:48 51°18.963 2°52.455 14.4 8 3.2 102550 59
2005-01-25 08:49 51°19.035 2°52.745 17.7 7 3.2 102540 62
2005-01-25 08:50 51°19.105 2°53.038 15.9 8 3.2 102560 60
2005-01-25 08:51 51°19.174 2°53.331 17.8 2 3.2 102560 62
2005-01-25 08:52 51°19.236 2°53.624 17.2 3 3.2 102570 63
2005-01-25 08:53 51°19.297 2°53.919 19.3 6 3.2 102560 61
2005-01-25 08:54 51°19.358 2°54.212 16.7 10 3.1 102560 60
2005-01-25 08:55 51°19.421 2°54.506 15.6 5 3.2 102570 64
2005-01-25 08:56 51°19.483 2°54.802 16.8 4 3.2 102560 61
2005-01-25 08:57 51°19.546 2°55.099 18.5 5 3.2 102560 63
2005-01-25 08:58 51°19.606 2°55.394 18.8 7 3.1 102550 60
2005-01-25 08:59 51°19.667 2°55.692 17.2 9 3.1 102560 59
2005-01-25 09:00 51°19.728 2°55.983 18 359 3.2 102580 60
2005-01-25 09:01 51°19.792 2°56.275 16.1 3 3.1 102580 59
2005-01-25 09:02 51°19.856 2°56.57 15.5 357 3.1 102570 60
2005-01-25 09:03 51°19.922 2°56.871 15.8 7 3.2 102570 62
2005-01-25 09:04 51°19.992 2°57.179 17.4 -999 3.2 102560 61
2005-01-25 09:05 51°20.057 2°57.485 16.1 2 3.2 102570 60
2005-01-25 09:06 51°20.122 2°57.785 18 2 3.2 102570 60
2005-01-25 09:07 51°20.187 2°58.081 16.6 4 3.1 102570 56
2005-01-25 09:08 51°20.255 2°58.384 15.9 358 3.1 102570 58
2005-01-25 09:09 51°20.323 2°58.689 17.5 7 3.2 102580 62
2005-01-25 09:10 51°20.39 2°58.989 19 7 3.1 102570 57
2005-01-25 09:11 51°20.457 2°59.291 18.6 3 3.1 102570 53
2005-01-25 09:12 51°20.524 2°59.59 17.4 357 3.1 102570 53
2005-01-25 09:13 51°20.591 2°59.893 16.4 4 3.1 102580 56
2005-01-25 09:14 51°20.655 3°0.199 17.4 356 3 102590 57
2005-01-25 09:15 51°20.718 3°0.508 17.3 356 3 102580 57
2005-01-25 09:16 51°20.782 3°0.816 15.2 359 3.1 102590 62
2005-01-25 09:17 51°20.842 3°1.125 16.3 354 3 102590 56
2005-01-25 09:18 51°20.905 3°1.434 15.1 354 3 102580 56
2005-01-25 09:19 51°20.969 3°1.743 15.6 -999 3 102580 58
2005-01-25 09:20 51°21.031 3°2.053 16.9 4 3 102580 57
2005-01-25 09:21 51°21.097 3°2.363 14.7 360 3 102590 56
2005-01-25 09:22 51°21.161 3°2.676 13.3 -999 3 102590 59
2005-01-25 09:23 51°21.224 3°2.988 16.7 1 2.9 102590 59
2005-01-25 09:24 51°21.287 3°3.302 14.6 4 2.9 102590 58
2005-01-25 09:25 51°21.352 3°3.616 14.7 357 2.9 102600 60
2005-01-25 09:26 51°21.416 3°3.93 15.7 354 2.9 102580 57
2005-01-25 09:27 51°21.482 3°4.245 14.6 351 2.8 102590 55
2005-01-25 09:28 51°21.546 3°4.559 15.2 358 2.8 102590 57
2005-01-25 09:29 51°21.612 3°4.874 14.6 351 2.8 102590 58
2005-01-25 09:30 51°21.676 3°5.186 14.5 355 2.8 102580 59
2005-01-25 09:31 51°21.741 3°5.504 14.8 2 2.8 102590 59
2005-01-25 09:32 51°21.806 3°5.819 15.7 357 2.7 102590 58
2005-01-25 09:33 51°21.87 3°6.137 13.5 356 2.7 102580 58
2005-01-25 09:34 51°21.934 3°6.456 14 357 2.8 102590 61
2005-01-25 09:35 51°21.993 3°6.776 12.4 3 2.7 102600 60
2005-01-25 09:36 51°22.019 3°7.113 13.3 358 2.7 102590 61
2005-01-25 09:37 51°22.048 3°7.454 13 351 2.7 102590 61
2005-01-25 09:38 51°22.076 3°7.794 12.8 356 2.7 102590 59
2005-01-25 09:39 51°22.107 3°8.133 13.2 352 2.7 102590 61
2005-01-25 09:40 51°22.137 3°8.476 12.9 357 2.7 102580 60
2005-01-25 09:41 51°22.169 3°8.823 12.5 355 2.6 102590 59
2005-01-25 09:42 51°22.206 3°9.17 13.3 358 2.6 102590 61
2005-01-25 09:43 51°22.242 3°9.518 12.4 350 2.6 102590 61
2005-01-25 09:44 51°22.279 3°9.866 12.5 354 2.6 102580 61
2005-01-25 09:45 51°22.317 3°10.215 12.6 357 2.6 102580 60
2005-01-25 09:46 51°22.359 3°10.558 12.6 353 2.6 102590 61
2005-01-25 09:47 51°22.401 3°10.908 12.6 351 2.6 102580 61
2005-01-25 09:48 51°22.437 3°11.255 13.2 346 2.6 102590 64
2005-01-25 09:49 51°22.47 3°11.606 13 355 2.6 102590 64
2005-01-25 09:50 51°22.505 3°11.961 11 353 2.6 102580 63
2005-01-25 09:51 51°22.543 3°12.316 12 359 2.6 102580 62
2005-01-25 09:52 51°22.582 3°12.669 12.9 353 2.5 102590 63
2005-01-25 09:53 51°22.622 3°13.013 11.3 352 2.5 102590 61
2005-01-25 09:54 51°22.646 3°13.217 7.3 5 2.5 102620 63
2005-01-25 09:55 51°22.659 3°13.263 5.9 39 2.5 102620 62
2005-01-25 09:56 51°22.657 3°13.27 5.8 47 2.4 102640 64
2005-01-25 09:57 51°22.652 3°13.272 5.1 57 2.3 102630 63
2005-01-25 09:58 51°22.644 3°13.27 4.9 74 2.3 102620 65
2005-01-25 09:59 51°22.634 3°13.269 4.9 83 2.2 102630 63
2005-01-25 10:00 51°22.624 3°13.269 5.6 90 2.3 102630 64
2005-01-25 10:01 51°22.614 3°13.271 5.3 93 2.3 102630 65
2005-01-25 10:02 51°22.603 3°13.274 5.8 112 2.3 102630 65
2005-01-25 10:03 51°22.593 3°13.279 5 117 2.4 102640 64
2005-01-25 10:04 51°22.584 3°13.284 6.5 133 2.5 102650 64
2005-01-25 10:05 51°22.574 3°13.291 5.2 137 2.5 102640 64
2005-01-25 10:06 51°22.565 3°13.299 6 139 2.4 102650 63
2005-01-25 10:07 51°22.565 3°13.285 5.2 112 2.4 102640 65
2005-01-25 10:08 51°22.636 3°13.293 8.1 27 2.4 102620 67
2005-01-25 10:09 51°22.808 3°13.443 12.3 11 2.3 102590 66
2005-01-25 10:10 51°22.992 3°13.651 11.9 8 2.3 102600 65
2005-01-25 10:11 51°23.173 3°13.864 12.6 12 2.3 102600 65
2005-01-25 10:12 51°23.354 3°14.076 11.7 13 2.3 102630 64
2005-01-25 10:13 51°23.532 3°14.289 12.2 20 2.3 102610 65
2005-01-25 10:14 51°23.711 3°14.504 11.3 14 2.3 102600 66
2005-01-25 10:15 51°23.893 3°14.722 11 5 2.3 102600 65
2005-01-25 10:16 51°24.072 3°14.951 12.2 7 2.3 102610 66
2005-01-25 10:17 51°24.246 3°15.193 11.6 13 2.3 102610 66
2005-01-25 10:18 51°24.42 3°15.447 12.2 11 2.3 102620 65
2005-01-25 10:19 51°24.592 3°15.705 12.4 8 2.3 102620 65
2005-01-25 10:20 51°24.768 3°15.965 12.6 7 2.4 102620 67
2005-01-25 10:21 51°24.942 3°16.228 12.4 11 2.4 102610 65
2005-01-25 10:22 51°25.109 3°16.487 12.1 13 2.3 102610 64
2005-01-25 10:23 51°25.272 3°16.739 12.7 8 2.3 102620 66
2005-01-25 10:24 51°25.435 3°16.992 12.6 10 2.3 102610 65
2005-01-25 10:25 51°25.583 3°17.262 12.3 15 2.3 102620 64
2005-01-25 10:26 51°25.729 3°17.539 11.7 12 2.3 102620 65
2005-01-25 10:27 51°25.859 3°17.766 9.2 27 2.3 102670 66
2005-01-25 10:28 51°25.922 3°17.808 6.3 25 2.3 102650 66
2005-01-25 10:29 51°25.913 3°17.818 6.3 32 2.2 102670 65
2005-01-25 10:30 51°25.9 3°17.828 4.4 28 2.1 102670 64
2005-01-25 10:31 51°25.887 3°17.838 5.2 39 2.1 102670 65
2005-01-25 10:32 51°25.872 3°17.848 4.8 64 2.2 102670 67
2005-01-25 10:33 51°25.889 3°17.839 5 102 2.3 102660 68
2005-01-25 10:34 51°25.879 3°17.703 1.6 122 2.3 102670 66
2005-01-25 10:35 51°25.816 3°17.41 2.7 60 2.3 102630 66
2005-01-25 10:36 51°25.757 3°17.082 1.8 68 2.2 102630 64
2005-01-25 10:37 51°25.717 3°16.741 3.4 62 2.2 102630 66
2005-01-25 10:38 51°25.685 3°16.394 2.3 36 2.2 102630 64
2005-01-25 10:39 51°25.664 3°16.052 3 57 2.2 102630 66
2005-01-25 10:40 51°25.631 3°15.706 1.4 42 2.2 102630 66
2005-01-25 10:41 51°25.592 3°15.363 1.9 66 2.2 102630 65
2005-01-25 10:42 51°25.552 3°15.019 1.8 75 2.3 102630 66
2005-01-25 10:43 51°25.514 3°14.671 2.5 79 2.4 102630 65
2005-01-25 10:44 51°25.476 3°14.322 3 62 2.4 102620 66
2005-01-25 10:45 51°25.44 3°13.972 2.2 67 2.3 102630 64
2005-01-25 10:46 51°25.402 3°13.625 4.1 63 2.4 102620 66
2005-01-25 10:47 51°25.367 3°13.283 2.4 80 2.4 102620 64
2005-01-25 10:48 51°25.349 3°12.937 1.9 59 2.4 102630 65
2005-01-25 10:49 51°25.332 3°12.591 3.3 72 2.5 102620 66
2005-01-25 10:50 51°25.342 3°12.254 4.2 75 2.5 102620 66
2005-01-25 10:51 51°25.446 3°11.968 8.3 66 2.6 102610 66
2005-01-25 10:52 51°25.574 3°11.707 8.9 59 2.6 102590 64
2005-01-25 10:53 51°25.688 3°11.435 9.5 65 2.5 102590 65
2005-01-25 10:54 51°25.796 3°11.168 6.4 79 2.6 102590 66
2005-01-25 10:55 51°25.899 3°10.891 5.6 79 2.5 102600 65
2005-01-25 10:56 51°25.994 3°10.598 7.8 72 2.6 102590 65
2005-01-25 10:57 51°26.062 3°10.284 4.9 77 2.5 102590 62
2005-01-25 10:58 51°26.121 3°9.965 5.3 83 2.6 102600 64
2005-01-25 10:59 51°26.181 3°9.641 7.4 80 2.6 102590 63
2005-01-25 11:00 51°26.24 3°9.315 5.6 82 2.7 102580 63
2005-01-25 11:01 51°26.299 3°8.987 8.2 83 2.6 102580 60
2005-01-25 11:02 51°26.349 3°8.733 5.6 121 2.6 102640 59
2005-01-25 11:03 51°26.379 3°8.621 7.9 94 2.6 102620 60
2005-01-25 11:04 51°26.412 3°8.559 7 109 2.8 102620 62
2005-01-25 11:05 51°26.435 3°8.456 6 116 2.8 102630 61
2005-01-25 11:06 51°26.462 3°8.41 8.2 105 2.8 102620 63
2005-01-25 11:07 51°26.466 3°8.402 7.7 102 2.9 102620 63
2005-01-25 11:08 51°26.46 3°8.398 6 116 2.9 102630 61
2005-01-25 11:09 51°26.45 3°8.395 7.6 117 3 102630 64
2005-01-25 11:10 51°26.437 3°8.391 8 104 3 102620 60
2005-01-25 11:11 51°26.437 3°8.366 7.5 115 2.9 102610 59
2005-01-25 11:12 51°26.509 3°8.189 7.7 99 2.9 102590 60
2005-01-25 11:13 51°26.605 3°7.92 8.5 66 2.8 102570 62
2005-01-25 11:14 51°26.714 3°7.629 7.9 88 2.7 102570 60
2005-01-25 11:15 51°26.823 3°7.347 7.3 66 2.7 102580 63
2005-01-25 11:16 51°26.934 3°7.063 8.6 75 2.8 102570 63
2005-01-25 11:17 51°27.047 3°6.783 9.4 67 2.7 102580 62
2005-01-25 11:18 51°27.165 3°6.501 8 84 2.7 102570 62
2005-01-25 11:19 51°27.279 3°6.22 7.6 66 2.8 102560 63
2005-01-25 11:20 51°27.397 3°5.935 9.2 87 2.7 102570 61
2005-01-25 11:21 51°27.509 3°5.657 8.1 77 2.7 102580 59
2005-01-25 11:22 51°27.628 3°5.376 8.6 63 2.8 102590 62
2005-01-25 11:23 51°27.746 3°5.092 7.8 80 2.8 102580 62
2005-01-25 11:24 51°27.866 3°4.808 5.8 79 2.7 102580 61
2005-01-25 11:25 51°27.976 3°4.521 7.1 83 2.8 102580 62
2005-01-25 11:26 51°28.063 3°4.204 5.3 80 2.8 102580 64
2005-01-25 11:27 51°28.157 3°3.888 5 83 2.8 102580 62
2005-01-25 11:28 51°28.228 3°3.645 4.3 109 2.9 102620 65
2005-01-25 11:29 51°28.257 3°3.496 5.3 119 2.9 102630 64
2005-01-25 11:30 51°28.26 3°3.467 6.2 150 2.9 102610 63
2005-01-25 11:31 51°28.255 3°3.46 6 140 2.9 102650 63
2005-01-25 11:32 51°28.25 3°3.454 6.2 122 2.9 102640 63
2005-01-25 11:33 51°28.245 3°3.452 6.4 114 3 102620 63
2005-01-25 11:34 51°28.239 3°3.455 7.1 119 3 102610 63
2005-01-25 11:35 51°28.242 3°3.446 6.5 105 3 102630 63
2005-01-25 11:36 51°28.303 3°3.263 4.9 82 3 102580 60
2005-01-25 11:37 51°28.285 3°2.949 4.2 85 3 102610 61
2005-01-25 11:38 51°28.227 3°2.613 3 81 2.9 102590 59
2005-01-25 11:39 51°28.16 3°2.278 1.4 100 3 102590 61
2005-01-25 11:40 51°28.105 3°1.939 2.1 82 3 102590 62
2005-01-25 11:41 51°28.05 3°1.601 4.7 79 3.1 102590 61
2005-01-25 11:42 51°27.986 3°1.269 3.6 87 3.1 102590 61
2005-01-25 11:43 51°27.915 3°0.937 3 90 3.1 102590 61
2005-01-25 11:44 51°27.853 3°0.605 3.6 102 3.1 102590 60
2005-01-25 11:45 51°27.8 3°0.258 4.1 67 3.1 102590 61
2005-01-25 11:46 51°27.748 2°59.918 4.9 90 3.1 102590 60
2005-01-25 11:47 51°27.696 2°59.577 4.1 77 3.1 102590 59
2005-01-25 11:48 51°27.644 2°59.238 4.5 96 3.2 102590 59
2005-01-25 11:49 51°27.591 2°58.905 2.1 85 3.2 102590 58
2005-01-25 11:50 51°27.539 2°58.567 3.1 110 3.2 102590 60
2005-01-25 11:51 51°27.486 2°58.234 3.5 98 3.3 102590 62
2005-01-25 11:52 51°27.431 2°57.898 4 106 3.3 102590 60
2005-01-25 11:53 51°27.382 2°57.556 4.6 104 3.4 102580 57
2005-01-25 11:54 51°27.337 2°57.217 3.6 81 3.3 102580 59
2005-01-25 11:55 51°27.288 2°56.875 4.5 85 3.3 102580 59
2005-01-25 11:56 51°27.241 2°56.547 5.3 105 3.3 102580 60
2005-01-25 11:57 51°27.191 2°56.213 5.5 93 3.3 102580 60
2005-01-25 11:58 51°27.148 2°55.875 6.2 90 3.3 102580 60
2005-01-25 11:59 51°27.099 2°55.542 4.8 103 3.3 102580 58
2005-01-25 12:00 51°27.049 2°55.212 3.2 113 3.3 102620 61
2005-01-25 12:01 51°27.008 2°54.88 4.9 109 3.3 102570 59
2005-01-25 12:02 51°26.97 2°54.549 3.4 112 3.3 102580 60
2005-01-25 12:03 51°26.933 2°54.219 4 135 3.3 102580 60
2005-01-25 12:04 51°26.892 2°53.889 4.2 128 3.3 102580 60
2005-01-25 12:05 51°26.847 2°53.56 4.2 121 3.3 102580 59
2005-01-25 12:06 51°26.8 2°53.225 2.1 140 3.3 102580 60
2005-01-25 12:07 51°26.757 2°52.889 2.8 107 3.3 102580 61
2005-01-25 12:08 51°26.711 2°52.557 4.2 105 3.4 102590 60
2005-01-25 12:09 51°26.67 2°52.224 2.7 116 3.4 102580 59
2005-01-25 12:10 51°26.628 2°51.89 4.5 103 3.4 102580 60
2005-01-25 12:11 51°26.583 2°51.561 3.4 123 3.4 102580 60
2005-01-25 12:12 51°26.542 2°51.228 3 110 3.4 102580 59
2005-01-25 12:13 51°26.496 2°50.898 4.7 134 3.3 102580 59
2005-01-25 12:14 51°26.455 2°50.574 2.4 119 3.4 102590 62
2005-01-25 12:15 51°26.413 2°50.244 4.3 135 3.4 102580 62
2005-01-25 12:16 51°26.352 2°49.92 1.9 117 3.3 102590 59
2005-01-25 12:17 51°26.242 2°49.637 3.2 234 3.4 102590 61
2005-01-25 12:18 51°26.151 2°49.335 2.5 150 3.4 102590 60
2005-01-25 12:19 51°26.088 2°49.008 3.4 131 3.3 102590 59
2005-01-25 12:20 51°26.039 2°48.759 6.6 151 3.3 102630 60
2005-01-25 12:21 51°26.016 2°48.617 5.8 144 3.3 102620 60
2005-01-25 12:22 51°26.005 2°48.549 9.9 148 3.4 102620 62
2005-01-25 12:23 51°26.013 2°48.534 9.7 134 3.4 102610 58
2005-01-25 12:24 51°26.027 2°48.533 9.2 129 3.4 102610 63
2005-01-25 12:25 51°26.037 2°48.543 10.1 110 3.4 102620 58
2005-01-25 12:26 51°26.046 2°48.557 7.8 118 3.3 102610 58
2005-01-25 12:27 51°26.052 2°48.574 8.1 118 3.4 102620 61
2005-01-25 12:28 51°26.055 2°48.595 10.5 114 3.5 102610 66
2005-01-25 12:29 51°26.058 2°48.615 7.6 131 3.5 102600 64
2005-01-25 12:30 51°26.061 2°48.634 10.9 123 3.5 102600 58
2005-01-25 12:31 51°26.064 2°48.653 9.3 126 3.5 102600 63
2005-01-25 12:32 51°26.067 2°48.67 9.8 124 3.4 102600 61
2005-01-25 12:33 51°26.071 2°48.687 11 125 3.4 102600 60
2005-01-25 12:34 51°26.089 2°48.663 9.1 152 3.4 102580 59
2005-01-25 12:35 51°26.027 2°48.58 6.2 248 3.4 102600 59
2005-01-25 12:36 51°25.867 2°48.406 2.4 254 3.5 102620 62
2005-01-25 12:37 51°25.726 2°48.169 2.9 247 3.6 102610 63
2005-01-25 12:38 51°25.606 2°47.907 0.8 174 3.6 102610 61
2005-01-25 12:39 51°25.515 2°47.612 1.9 140 3.7 102610 61
2005-01-25 12:40 51°25.427 2°47.314 0.5 126 3.7 102610 59
2005-01-25 12:41 51°25.338 2°47.01 1.5 165 3.7 102600 59
2005-01-25 12:42 51°25.25 2°46.711 2.2 140 3.7 102570 59
2005-01-25 12:43 51°25.161 2°46.416 0.9 116 3.7 102570 59
2005-01-25 12:44 51°25.073 2°46.116 1.7 169 3.6 102560 60
2005-01-25 12:45 51°24.981 2°45.819 1.2 176 3.7 102570 61
2005-01-25 12:46 51°24.892 2°45.518 2.5 224 3.8 102570 62
2005-01-25 12:47 51°24.798 2°45.228 1.8 238 3.8 102560 60
2005-01-25 12:48 51°24.706 2°44.928 2.7 183 3.8 102560 61
2005-01-25 12:49 51°24.615 2°44.634 2.6 162 4 102570 59
2005-01-25 12:50 51°24.525 2°44.328 1.4 213 4.1 102560 58
2005-01-25 12:51 51°24.437 2°44.039 2.3 200 4 102560 58
2005-01-25 12:52 51°24.348 2°43.742 2.1 153 3.9 102560 57
2005-01-25 12:53 51°24.253 2°43.44 1 170 3.9 102560 60
2005-01-25 12:54 51°24.162 2°43.146 2.1 155 4 102560 60
2005-01-25 12:55 51°24.078 2°42.858 1.5 151 4 102560 61
2005-01-25 12:56 51°23.988 2°42.56 1.6 133 3.9 102560 59
2005-01-25 12:57 51°23.892 2°42.284 2.5 219 4 102550 62
2005-01-25 12:58 51°23.793 2°41.99 1.6 201 4 102560 61
2005-01-25 12:59 51°23.698 2°41.699 3.1 213 4 102550 58
2005-01-25 13:00 51°23.598 2°41.408 0.9 176 4.1 102550 60
2005-01-25 13:01 51°23.499 2°41.115 3.9 148 4.1 102560 62
2005-01-25 13:02 51°23.399 2°40.833 3.3 164 4 102560 58
2005-01-25 13:03 51°23.305 2°40.539 2.6 129 3.8 102560 56
2005-01-25 13:04 51°23.203 2°40.251 1.9 174 3.7 102550 60
2005-01-25 13:05 51°23.106 2°39.959 1.9 154 3.7 102560 60
2005-01-25 13:06 51°23.014 2°39.672 2.1 173 3.7 102550 62
2005-01-25 13:07 51°22.917 2°39.386 2.2 200 3.8 102550 60
2005-01-25 13:08 51°22.821 2°39.103 4 170 3.7 102590 58
2005-01-25 13:09 51°22.725 2°38.811 1.7 211 3.8 102550 58
2005-01-25 13:10 51°22.633 2°38.523 3.9 218 3.9 102550 58
2005-01-25 13:11 51°22.538 2°38.238 1.7 161 4 102540 60
2005-01-25 13:12 51°22.447 2°37.95 3.3 139 4.1 102550 62
2005-01-25 13:13 51°22.354 2°37.67 3.5 158 3.9 102540 60
2005-01-25 13:14 51°22.259 2°37.392 3.3 132 3.7 102550 57
2005-01-25 13:15 51°22.171 2°37.105 3.6 156 3.6 102550 58
2005-01-25 13:16 51°22.078 2°36.823 2.1 149 3.5 102550 57
2005-01-25 13:17 51°21.982 2°36.537 1.4 191 3.4 102550 58
2005-01-25 13:18 51°21.89 2°36.255 1.5 155 3.4 102550 59
2005-01-25 13:19 51°21.794 2°35.961 2.7 128 3.5 102550 62
2005-01-25 13:20 51°21.703 2°35.686 1.1 152 3.5 102540 61
2005-01-25 13:21 51°21.605 2°35.412 1.1 158 3.5 102550 61
2005-01-25 13:22 51°21.512 2°35.124 3.4 138 3.6 102550 62
2005-01-25 13:23 51°21.418 2°34.837 3.9 145 3.6 102550 60
2005-01-25 13:24 51°21.325 2°34.548 3 161 3.6 102540 63
2005-01-25 13:25 51°21.228 2°34.262 2.9 160 3.5 102540 60
2005-01-25 13:26 51°21.148 2°33.96 2.4 165 3.5 102540 60
2005-01-25 13:27 51°21.07 2°33.658 2.8 44 3.5 102550 61
2005-01-25 13:28 51°20.99 2°33.353 3 128 3.5 102530 61
2005-01-25 13:29 51°20.906 2°33.055 3.2 126 3.4 102540 60
2005-01-25 13:30 51°20.824 2°32.748 1.9 108 3.4 102540 59
2005-01-25 13:31 51°20.741 2°32.442 2 120 3.4 102540 59
2005-01-25 13:32 51°20.654 2°32.135 1.9 126 3.4 102540 60
2005-01-25 13:33 51°20.558 2°31.838 1.9 167 3.5 102540 60
2005-01-25 13:34 51°20.456 2°31.554 4.8 134 3.5 102540 63
2005-01-25 13:35 51°20.367 2°31.256 2.5 110 3.5 102530 61
2005-01-25 13:36 51°20.28 2°30.955 1.8 142 3.5 102540 61
2005-01-25 13:37 51°20.198 2°30.657 2.7 119 3.5 102530 59
2005-01-25 13:38 51°20.106 2°30.388 0.5 194 3.5 102530 61
2005-01-25 13:39 51°20.047 2°30.22 2.8 169 3.5 102570 62
2005-01-25 13:40 51°20.012 2°30.082 4.9 162 3.6 102560 63
2005-01-25 13:41 51°19.998 2°30.03 6.2 173 3.6 102560 61
2005-01-25 13:42 51°20 2°30.027 9 158 3.7 102560 60
2005-01-25 13:43 51°20.008 2°30.026 9.9 136 3.6 102550 58
2005-01-25 13:44 51°20.018 2°30.035 12.5 120 3.7 102540 61
2005-01-25 13:45 51°20.025 2°30.051 10.2 127 3.7 102530 61
2005-01-25 13:46 51°20.032 2°30.078 10.5 119 3.7 102540 62
2005-01-25 13:47 51°20.037 2°30.104 10.8 104 3.7 102530 61
2005-01-25 13:48 51°20.039 2°30.128 9.4 110 3.7 102540 61
2005-01-25 13:49 51°20.044 2°30.143 10.8 99 3.7 102540 59
2005-01-25 13:50 51°20.053 2°30.165 9.5 90 3.8 102540 64
2005-01-25 13:51 51°20.081 2°30.179 9.8 56 3.8 102520 62
2005-01-25 13:52 51°20.12 2°30.223 10.3 17 3.7 102540 60
2005-01-25 13:53 51°20.14 2°30.303 12.8 322 3.7 102530 63
2005-01-25 13:54 51°20.123 2°30.399 11.5 313 3.8 102520 62
2005-01-25 13:55 51°20.107 2°30.512 12 39 3.8 102530 63
2005-01-25 13:56 51°20.088 2°30.63 13.9 309 3.8 102510 62
2005-01-25 13:57 51°20.064 2°30.743 12.2 302 3.7 102520 60
2005-01-25 13:58 51°20.016 2°30.886 13.2 310 3.7 102520 59
2005-01-25 13:59 51°19.894 2°31.155 16.3 309 3.7 102500 59
2005-01-25 14:00 51°19.76 2°31.444 15.7 315 3.7 102470 58
2005-01-25 14:01 51°19.627 2°31.74 15.3 311 3.7 102480 57
2005-01-25 14:02 51°19.482 2°32.018 13.5 311 3.7 102480 61
2005-01-25 14:03 51°19.335 2°32.294 15.5 232 3.7 102480 60
2005-01-25 14:04 51°19.195 2°32.564 13.3 308 3.7 102480 58
2005-01-25 14:05 51°19.057 2°32.841 16.7 309 3.7 102490 59
2005-01-25 14:06 51°18.917 2°33.112 14 322 3.7 102480 59
2005-01-25 14:07 51°18.756 2°33.357 14.6 312 3.7 102490 61
2005-01-25 14:08 51°18.6 2°33.602 14.7 307 3.7 102470 59
2005-01-25 14:09 51°18.439 2°33.847 13.9 305 3.7 102460 58
2005-01-25 14:10 51°18.277 2°34.088 14.8 308 3.7 102470 58
2005-01-25 14:11 51°18.118 2°34.349 12.9 307 3.7 102490 57
2005-01-25 14:12 51°17.955 2°34.594 13.2 304 3.7 102480 59
2005-01-25 14:13 51°17.794 2°34.843 13.6 308 3.7 102480 61
2005-01-25 14:14 51°17.631 2°35.101 12.3 309 3.6 102490 58
2005-01-25 14:15 51°17.465 2°35.345 13.8 297 3.6 102500 59
2005-01-25 14:16 51°17.298 2°35.59 12.9 299 3.5 102500 58
2005-01-25 14:17 51°17.13 2°35.838 15.7 303 3.5 102490 60
2005-01-25 14:18 51°16.963 2°36.07 11 301 3.6 102500 62
2005-01-25 14:19 51°16.806 2°36.329 14.6 41 3.6 102500 62
2005-01-25 14:20 51°16.685 2°36.607 14.2 314 3.5 102490 60
2005-01-25 14:21 51°16.649 2°36.796 13.6 306 3.6 102580 62
2005-01-25 14:22 51°16.65 2°36.83 7.8 258 3.6 102520 61
2005-01-25 14:23 51°16.653 2°36.842 11.1 258 3.5 102540 60
2005-01-25 14:24 51°16.655 2°36.856 10.4 285 3.5 102540 61
2005-01-25 14:25 51°16.658 2°36.875 12.4 281 3.5 102540 62
2005-01-25 14:26 51°16.662 2°36.889 12.4 282 3.5 102540 63
2005-01-25 14:27 51°16.665 2°36.901 13.6 274 3.6 102540 63
2005-01-25 14:28 51°16.668 2°36.914 13.4 279 3.6 102550 61
2005-01-25 14:29 51°16.669 2°36.924 17.1 274 3.6 102540 60
2005-01-25 14:30 51°16.672 2°36.934 13.8 274 3.5 102550 58
2005-01-25 14:31 51°16.675 2°36.948 10.5 272 3.4 102560 58
2005-01-25 14:32 51°16.677 2°36.961 12.9 282 3.5 102540 60
2005-01-25 14:33 51°16.679 2°36.974 11.3 273 3.5 102550 60
2005-01-25 14:34 51°16.683 2°36.984 14.6 266 3.5 102550 62
2005-01-25 14:35 51°16.685 2°36.992 15.4 277 3.5 102540 59
2005-01-25 14:36 51°16.687 2°37.001 11 279 3.4 102550 57
2005-01-25 14:37 51°16.68 2°37.024 13.2 277 3.5 102550 62
2005-01-25 14:38 51°16.654 2°37.058 12.4 262 3.5 102610 62
2005-01-25 14:39 51°16.611 2°37.093 7.1 255 3.4 102570 59
2005-01-25 14:40 51°16.554 2°37.112 9.8 255 3.3 102560 60
2005-01-25 14:41 51°16.49 2°37.135 8.6 250 3.3 102550 57
2005-01-25 14:42 51°16.42 2°37.162 5.4 257 3.3 102560 58
2005-01-25 14:43 51°16.349 2°37.189 6.8 254 3.3 102550 58
2005-01-25 14:44 51°16.222 2°37.196 7.5 261 3.4 102540 62
2005-01-25 14:45 51°16.012 2°37.159 9.1 271 3.5 102540 63
2005-01-25 14:46 51°15.799 2°37.188 11.2 285 3.5 102530 64
2005-01-25 14:47 51°15.587 2°37.23 11.2 277 3.5 102520 63
2005-01-25 14:48 51°15.371 2°37.292 12.4 284 3.5 102520 62
2005-01-25 14:49 51°15.167 2°37.407 12.4 287 3.4 102520 60
2005-01-25 14:50 51°14.996 2°37.634 12.1 311 3.4 102520 60
2005-01-25 14:51 51°14.825 2°37.859 13.7 300 3.5 102510 62
2005-01-25 14:52 51°14.65 2°38.084 13.1 294 3.4 102500 61
2005-01-25 14:53 51°14.477 2°38.303 12 310 3.4 102520 62
2005-01-25 14:54 51°14.3 2°38.52 17.4 304 3.3 102490 61
2005-01-25 14:55 51°14.11 2°38.692 10.6 296 3.3 102500 60
2005-01-25 14:56 51°13.896 2°38.731 8.2 261 3.4 102510 62
2005-01-25 14:57 51°13.7 2°38.58 6.7 236 3.4 102540 60
2005-01-25 14:58 51°13.527 2°38.352 4.9 234 3.4 102550 60
2005-01-25 14:59 51°13.335 2°38.173 5.5 237 3.3 102550 59
2005-01-25 15:00 51°13.134 2°38.007 3.8 248 3.3 102550 60
2005-01-25 15:01 51°12.939 2°37.852 4.9 255 3.4 102540 62
2005-01-25 15:02 51°12.738 2°37.701 8 270 3.4 102530 58
2005-01-25 15:03 51°12.539 2°37.55 5.9 235 3.4 102540 60
2005-01-25 15:04 51°12.346 2°37.394 3.2 252 3.3 102540 58
2005-01-25 15:05 51°12.151 2°37.225 3.6 259 3.4 102540 60
2005-01-25 15:06 51°11.954 2°37.071 6.9 264 3.4 102540 61
2005-01-25 15:07 51°11.757 2°36.92 6.2 261 3.4 102540 57
2005-01-25 15:08 51°11.562 2°36.756 6.3 260 3.4 102540 60
2005-01-25 15:09 51°11.362 2°36.596 4.9 248 3.3 102540 58
2005-01-25 15:10 51°11.162 2°36.423 5.8 257 3.3 102550 57
2005-01-25 15:11 51°10.963 2°36.263 6.3 246 3.3 102540 60
2005-01-25 15:12 51°10.77 2°36.117 6.2 257 3.2 102550 56
2005-01-25 15:13 51°10.566 2°35.966 4.3 247 3.2 102550 57
2005-01-25 15:14 51°10.356 2°35.851 4.3 254 3.2 102550 57
2005-01-25 15:15 51°10.14 2°35.788 12.2 270 3.2 102550 61
2005-01-25 15:16 51°9.979 2°35.995 17.2 328 3.4 102510 65
2005-01-25 15:17 51°9.971 2°36.344 18.9 351 3.4 102500 61
2005-01-25 15:18 51°10.026 2°36.683 18.8 350 3.4 102500 59
2005-01-25 15:19 51°10.092 2°37.019 18.1 355 3.3 102510 58
2005-01-25 15:20 51°10.155 2°37.362 19.5 350 3.3 102510 59
2005-01-25 15:21 51°10.223 2°37.706 19.5 355 3.2 102520 61
2005-01-25 15:22 51°10.297 2°38.029 19.3 353 3.2 102510 58
2005-01-25 15:23 51°10.374 2°38.361 18.2 354 3.1 102530 55
2005-01-25 15:24 51°10.45 2°38.69 18.6 355 3.1 102520 56
2005-01-25 15:25 51°10.528 2°39.03 17.2 356 3.1 102520 58
2005-01-25 15:26 51°10.604 2°39.367 15.7 351 3.2 102560 62
2005-01-25 15:27 51°10.678 2°39.701 19.2 1 3.2 102520 60
2005-01-25 15:28 51°10.752 2°40.034 18 349 3.2 102500 58
2005-01-25 15:29 51°10.823 2°40.361 21.3 355 3.2 102510 58
2005-01-25 15:30 51°10.885 2°40.701 19 347 3.2 102510 59
2005-01-25 15:31 51°10.938 2°41.036 18.9 350 3.1 102510 57
2005-01-25 15:32 51°10.994 2°41.382 18.8 347 3.1 102510 58
2005-01-25 15:33 51°11.042 2°41.701 15.6 353 3.1 102560 58
2005-01-25 15:34 51°11.075 2°41.892 15.1 7 3.2 102550 61
2005-01-25 15:35 51°11.104 2°42.022 13.6 339 3 102560 56
2005-01-25 15:36 51°11.093 2°42.064 12.1 304 3 102540 56
2005-01-25 15:37 51°11.078 2°42.066 14.3 282 3 102550 58
2005-01-25 15:38 51°11.063 2°42.059 12.9 275 3 102550 57
2005-01-25 15:39 51°11.049 2°42.051 12.2 278 3.1 102550 58
2005-01-25 15:40 51°11.036 2°42.041 12.6 275 3 102560 56
2005-01-25 15:41 51°11.023 2°42.031 12.8 278 3 102560 56
2005-01-25 15:42 51°11.009 2°42.019 16.7 266 3 102560 57
2005-01-25 15:43 51°10.995 2°42.008 12.6 287 3.1 102570 59
2005-01-25 15:44 51°10.982 2°41.994 16 281 3.2 102560 61
2005-01-25 15:45 51°10.968 2°41.981 10.6 265 3.1 102570 56
2005-01-25 15:46 51°10.943 2°42.019 13.2 324 3.1 102550 56
2005-01-25 15:47 51°10.944 2°42.122 13.5 354 3.2 102560 60
2005-01-25 15:48 51°10.974 2°42.262 15.7 349 3.1 102560 59
2005-01-25 15:49 51°11.005 2°42.426 15.5 352 3.1 102560 55
2005-01-25 15:50 51°11.034 2°42.588 14.4 346 3 102560 55
2005-01-25 15:51 51°11.064 2°42.758 16.4 344 3 102560 57
2005-01-25 15:52 51°11.094 2°42.943 15.3 356 3.1 102550 59
2005-01-25 15:53 51°11.131 2°43.149 16.4 343 3.1 102550 61
2005-01-25 15:54 51°11.17 2°43.349 14.2 354 3.1 102570 62
2005-01-25 15:55 51°11.212 2°43.533 14.7 353 3 102570 58
2005-01-25 15:56 51°11.251 2°43.71 14.3 349 3.1 102580 60
2005-01-25 15:57 51°11.304 2°43.945 19.3 347 3 102580 57
2005-01-25 15:58 51°11.38 2°44.254 17.4 358 3.1 102540 61
2005-01-25 15:59 51°11.459 2°44.575 18.9 356 3.1 102530 60
2005-01-25 16:00 51°11.533 2°44.894 17 359 3 102540 58
2005-01-25 16:01 51°11.608 2°45.207 17.5 360 3 102540 59
2005-01-25 16:02 51°11.685 2°45.529 19.4 357 3 102530 57
2005-01-25 16:03 51°11.757 2°45.841 18.3 352 2.9 102520 58
2005-01-25 16:04 51°11.832 2°46.155 17.5 355 2.9 102540 58
2005-01-25 16:05 51°11.907 2°46.472 16.5 3 2.9 102550 59
2005-01-25 16:06 51°11.983 2°46.798 15.7 359 2.9 102540 59
2005-01-25 16:07 51°12.059 2°47.111 16.8 3 2.8 102550 57
2005-01-25 16:08 51°12.134 2°47.432 14.9 3 2.8 102540 60
2005-01-25 16:09 51°12.209 2°47.748 18.2 359 2.8 102550 59
2005-01-25 16:10 51°12.284 2°48.068 18.6 357 2.8 102550 55
2005-01-25 16:11 51°12.356 2°48.384 15.8 5 2.8 102540 58
2005-01-25 16:12 51°12.43 2°48.704 19.3 356 2.7 102550 56
2005-01-25 16:13 51°12.509 2°49.008 17.8 3 2.7 102540 58
2005-01-25 16:14 51°12.598 2°49.317 16.2 3 2.7 102560 53
2005-01-25 16:15 51°12.696 2°49.607 18.3 2 2.7 102540 56
2005-01-25 16:16 51°12.799 2°49.898 17.3 4 2.7 102560 55
2005-01-25 16:17 51°12.902 2°50.196 17.7 8 2.6 102570 55
2005-01-25 16:18 51°13.003 2°50.489 16.5 3 2.7 102570 59
2005-01-25 16:19 51°13.103 2°50.78 15.7 360 2.7 102560 58
2005-01-25 16:20 51°13.208 2°51.07 15.5 1 2.8 102560 61
2005-01-25 16:21 51°13.323 2°51.361 18.2 2 2.8 102570 59
2005-01-25 16:22 51°13.43 2°51.643 17.3 3 2.8 102560 57
2005-01-25 16:23 51°13.541 2°51.934 17.3 2 2.7 102570 57
2005-01-25 16:24 51°13.65 2°52.213 17.1 354 2.8 102560 57
2005-01-25 16:25 51°13.763 2°52.503 18.8 10 2.8 102560 58
2005-01-25 16:26 51°13.871 2°52.784 17.1 9 2.9 102580 60
2005-01-25 16:27 51°13.981 2°53.071 18 359 2.8 102590 58
2005-01-25 16:28 51°14.093 2°53.352 15.5 359 2.8 102580 56
2005-01-25 16:29 51°14.187 2°53.646 17 352 2.8 102570 59
2005-01-25 16:30 51°14.27 2°53.954 17.9 3 2.7 102560 57
2005-01-25 16:31 51°14.355 2°54.245 17.6 349 2.7 102580 56
2005-01-25 16:32 51°14.39 2°54.539 17.4 343 2.8 102580 57
2005-01-25 16:33 51°14.381 2°54.837 16 345 2.7 102590 56
2005-01-25 16:34 51°14.329 2°55.122 11.8 336 2.7 102570 55
2005-01-25 16:35 51°14.201 2°55.345 10.7 308 2.7 102610 58
2005-01-25 16:36 51°14.068 2°55.456 5.2 278 2.7 102650 56
2005-01-25 16:37 51°13.949 2°55.544 6.6 36 2.5 102660 55
2005-01-25 16:38 51°13.821 2°55.64 5.2 337 2.4 102660 54
2005-01-25 16:39 51°13.719 2°55.778 6.9 341 2.3 102660 55
2005-01-25 16:40 51°13.653 2°55.922 6.3 344 2.1 102660 55
2005-01-25 16:41 51°13.613 2°56.037 7 336 2 102660 55
2005-01-25 16:42 51°13.594 2°56.1 4.1 321 1.9 102660 56
2005-01-25 16:43 51°13.592 2°56.105 2.6 43 1.8 102660 56
2005-01-25 16:44 51°13.593 2°56.104 3.9 297 1.8 102670 57